Regional Weather Roundup
Issued by NWS Jackson, KY

Current Version | Previous Version | Text Only | Print | Product List | Glossary On
Versions: 1 2 3 4 5 6 7 8 9 10 11 12 13 14 15 16 17 18 19 20 21 22 23 24 25 26 27
000
ASUS43 KJKL 191310
RWRJKL

EAST KENTUCKY HOURLY WEATHER ROUNDUP
NATIONAL WEATHER SERVICE JACKSON KY
900 AM EDT TUE OCT 19 2021

NOTE: "FAIR" INDICATES FEW OR NO CLOUDS BELOW 12,000 FEET WITH
NO SIGNIFICANT WEATHER AND/OR OBSTRUCTIONS TO VISIBILITY.

* THESE REPORTS ARE NOT UNDER NWS QUALITY CONTROL AND MAY NOT
  REPORT WEATHER SUCH AS PRECIPITATION AND FOG.

KYZ079-080-083-085-087-088-110-112-115-119-120-191400
...EASTERN KENTUCKY...

CITY           SKY/WX    TMP DP  RH WIND       PRES   REMARKS
JACKSON        SUNNY     49  46  90 CALM      30.27R
LONDON         SUNNY     45  43  93 CALM      30.27R
SOMERSET*      MIX PCPN  43  43 100 CALM      30.25S VSB 1/2
MONTICELLO*    SUNNY     43  43 100 CALM      30.28R
WILLIAMSBURG*  CLOUDY    41  41 100 CALM      30.28R VSB<1/4
MIDDLESBORO*   FOG       42  42 100 CALM      30.31R VSB 1/2
HARLAN APT*    CLOUDY    41  41 100 CALM      30.30R VSB 1/4
PIKE CO APT*     N/A     45  45 100 S3        30.27R
BIG SANDY APT* SUNNY     47  46  97 CALM      30.27R
MOREHEAD APT*  SUNNY     46  45  93 CALM      30.27S
ASHLAND*       SUNNY     46  45  96 CALM      30.27R
$$

KYZ035-036-041-042-044-050-067-078-099-191400
...CENTRAL KENTUCKY...

CITY           SKY/WX    TMP DP  RH WIND       PRES   REMARKS
MT STERLING*   SUNNY     45  45 100 CALM      30.27R
FLEMING/MASON* SUNNY     49  44  85 SW5       30.27R
DANVILLE*      SUNNY     45  43  93 CALM      30.26S
RICHMOND*        N/A     45  45 100 CALM      30.25R
LEXINGTON      SUNNY     47  44  90 SE5       30.24R
FRANKFORT      SUNNY     47  44  90 CALM      30.24R
LOUISVILLE     SUNNY     49  47  93 SE3       30.23S
LEBANON*         N/A     48  48 100 CALM      30.25R
GLASGOW*       FOG       44  44 100 CALM      30.24R VSB 1/4
BOWLING GREEN  SUNNY     47  45  93 CALM      30.25R
$$

KYZ091>093-OHZ055-061-077-WVZ005-015-034-035-042-191400
...SOUTHERN OHIO/WEST VIRGINIA...

CITY           SKY/WX    TMP DP  RH WIND       PRES   REMARKS
COVINGTON      SUNNY     48  45  89 S3        30.22S
COLUMBUS       SUNNY     47  42  83 S3        30.22R
DAYTON         SUNNY     51  43  74 SW3       30.23R
WILMINGTON     SUNNY     51  45  79 CALM      30.23R
HUNTINGTON     SUNNY     46  44  93 S3        30.25R
CHARLESTON     SUNNY     43  43 100 CALM      30.25R
PINEVILLE*     FOG       40  39  96 MISG      30.33R VSB 1/2
BECKLEY        SUNNY     47  43  86 CALM      30.26R
BLUEFIELD      SUNNY     48  39  71 W6        30.28R
LOGAN CO APT*  FOG       43  43 100 CALM      30.27R VSB<1/4
$$

VAZ002-007-008-TNZ017-027-036-066-071-191400
...SOUTHWEST VIRGINIA/EAST TENNESSEE...

CITY           SKY/WX    TMP DP  RH WIND       PRES   REMARKS
WISE*          SUNNY     45  41  87 CALM      30.29R
JONESVILLE*      N/A     41  41 100 CALM      30.30R
ABINGDON*      SUNNY     44  43  94 E5        30.30R
BRISTOL        SUNNY     45  41  86 CALM      30.28S
MORRISTOWN*    SUNNY     50  46  87 CALM      30.26R
SEVIERVILLE*   SUNNY     43  43 100 CALM      30.28R
KNOXVILLE      MOSUNNY   46  44  93 NE3       30.27R
LAFOLLETTE*    SUNNY     43  43 100 CALM      30.32R
OAK RIDGE      FOG       47  47 100 CALM      30.29R VSB 1/4
CROSSVILLE     FOG       44  44 100 CALM      30.27R VSB 3/4
NASHVILLE      FOG       47  43  86 CALM      30.25R VSB 1
$$

...KEY TO REMARKS...
VSB - VISIBILITY IN MILES
WCI - WIND CHILL INDEX
HX  - HEAT INDEX

$$



USA.gov is the U.S. government's official web portal to all federal, state and local government web resources and services.